Location: Boissi�res
(45.2500°N, 2.3667°E)
Time: 15:21:03
(UTC+00:00)

Cosmos 2322 - Pass Details

Date: 03 March 2021
Orbit: 842 x 853 km, 71.0° (Epoch: 22 April)

Event Time Altitude Azimuth Distance (km) Brightness Sun altitude
Rises 19:43:00 0° 203° (SSW) 3,407 7.0 -22.2°
Reaches altitude 10° 19:45:27 10° 203° (SSW) 2,475 6.2 -22.6°
Maximum altitude 19:51:09 87° 113° (ESE) 860 3.6 -23.6°
Drops below altitude 10° 19:56:53 10° 26° (NNE) 2,489 6.0 -24.6°
Sets 19:59:21 0° 27° (NNE) 3,428 6.8 -25.0°
